Погода в Усалке

Россия / Тюменская область     57°19′14″N   66°57′51″E
темп.,
°C
ветер,
м/с
пор.,
м/с
влажн.,
%
обл.,
%
осадки,
мм/ч
давл.,
гПа
погр.,
м
29 июня, ср
ср2923:00+6зсз379799 1.0 1003183
02:00+7зсз3896100 0.0 1002357
05:00+6зсз3797100 0.1 1001437
08:00+6з3593100 0.0 1000384
11:00+7з3490100 0.1 999565
14:00+8сз2490100 0.1 999497
17:00+8ссз6893100 0.3 1000822
20:00+8ссз41093100 0.0 1001754
30 июня, чт
чт3023:00+8сз5119029 0.0 1001472
02:00+7зсз513945 0.0 1001322
05:00+6сз412885 0.0 1001338
08:00+11сз612645 0.0 1002916
11:00+15сз711505 0.0 10031555
14:00+17сз710445 0.0 10042012
17:00+18ссз694717 0.0 10052272
20:00+13с36725 0.0 1006186
1 июля, пт
пт123:00+9зсз388752 0.0 1008158
02:00+8сз41089100 0.0 1008337
05:00+7зсз41088100 0.0 1009330
08:00+11сз5869100 0.0 1009592
11:00+10зсз4979100 0.1 1011505
14:00+13зсз5871100 0.0 1011630
17:00+16зсз5760100 0.0 1011911
20:00+12зюз3878100 0.0 1010195
2 июля, сб
сб223:00+13з3976100 0.0 1010243
02:00+11зсз2582100 0.0 1010140
05:00+11з2582100 0.0 1010134
08:00+14сз3672100 0.0 1010333
11:00+15сз346596 0.1 1010729
14:00+17зсз335736 0.5 10101254
17:00+18з235628 0.6 10091346
20:00+15зсз2278100 0.2 100920
3 июля, вс
вс323:00+13зюз2280100 0.2 100823
02:00+13зюз2381100 0.0 100762
05:00+12зюз2482100 0.0 100786
08:00+14ююз227796 0.0 1006168
11:00+19юз115775 0.2 1005931
14:00+18св227299 0.7 1003596
17:00+15всв3689100 1.0 1003215
20:00+14св38899 0.0 1003287